#timestamp,LO_Frequency,Hit,StdDev 
1600408815.1,286047003.9,N
1600408835.9,286047005.5,Y
1600408855.7,286047001.8,P
1600408875.6,286047002.5,P
1600408895.4,286047002.5,P
1600408915.2,286047001.9,Y
1600408935.1,286046999.0,P
1600408936.0,286046999.0,N
1600408955.8,286046997.7,N
1600408975.7,286046995.9,N
1600408995.5,286046995.1,N
1600409015.3,286046995.3,N
1600409035.2,286046995.3,N
1600409055.0,286046995.4,N
1600409055.9,286046995.4,N
1600409075.7,286046997.2,N
1600409095.6,286046997.5,N
1600409115.4,286046997.9,N
1600409135.3,286046997.3,N
1600409155.1,286046998.7,N
1600409175.8,286046999.2,N
1600409195.7,286047000.7,N
1600409215.5,286046998.9,N
1600409235.4,286046996.5,N
1600409255.2,286046999.4,N
1600409275.0,286046998.2,N
1600409275.9,286046998.2,N
1600409295.8,286046998.1,N
1600409315.6,286046998.5,N
1600409335.5,286046999.6,N
1600409355.3,286046996.1,N
1600409375.1,286046993.6,Y
1600409395.9,286046999.6,P
1600409415.7,286046995.4,P
1600409435.5,286046995.0,N
1600409455.4,286046998.0,N
1600409475.2,286046994.9,N
1600409495.1,286046997.0,N
1600409496.0,286046997.0,N
1600409515.8,286046997.8,N
1600409535.6,286046998.0,N
1600409555.5,286046998.8,N
1600409575.3,286046998.1,N
1600409595.1,286046998.9,N
1600409615.9,286046997.4,N
1600409635.7,286046996.9,N
1600409655.6,286046998.5,N
1600409675.4,286047000.7,N
1600409695.2,286046999.0,N
1600409715.1,286046998.4,N
1600409716.0,286046998.4,N
1600409735.8,286046998.9,N
1600409755.6,286046999.4,N
1600409775.5,286046999.1,N
1600409795.3,286046997.3,N
1600409815.1,286046998.7,N
1600409835.9,286047000.9,N
1600409855.7,286047000.4,N
1600409875.6,286047000.3,N
1600409895.4,286047000.7,N
1600409915.2,286046996.5,N
1600409935.1,286046996.6,N
1600409936.0,286046996.6,N
1600409955.8,286046999.3,N
1600409975.7,286046997.1,N
1600409995.5,286046996.9,N
1600410015.3,286046996.9,N
1600410035.2,286046994.9,Y
1600410055.9,286046996.6,P
1600410075.7,286046995.3,P
1600410095.6,286046999.4,N
1600410115.4,286046999.5,N
1600410135.3,286046998.5,N
1600410155.1,286046997.0,N
1600410156.0,286046997.0,N
1600410175.8,286046996.8,N
1600410195.7,286046998.2,N
1600410215.5,286047001.1,N
1600410235.3,286047000.1,N
1600410255.2,286047003.2,N
1600410275.0,286047004.4,N
1600410275.9,286047004.4,N
1600410295.8,286047004.2,N
1600410315.6,286046999.9,N
1600410335.4,286046998.6,N
1600410355.3,286047000.3,N
1600410375.1,286047000.2,N
1600410395.8,286046998.1,N
1600410415.7,286046998.3,N
1600410435.5,286046998.5,N
1600410455.4,286046999.3,N
1600410475.2,286046998.6,N
1600410495.0,286047000.9,N
1600410495.9,286047000.9,N
1600410515.8,286047000.0,N
1600410535.6,286047003.6,N
1600410555.5,286047004.6,N
1600410575.3,286047004.7,N
1600410595.1,286047006.9,N
1600410615.9,286047007.5,N
1600410635.7,286047005.9,N
1600410655.5,286047001.6,N
1600410675.4,286047002.4,N
1600410695.2,286046999.7,N
1600410715.1,286047001.8,N
1600410716.0,286047001.8,N
1600410735.8,286047000.1,N
1600410755.6,286047002.2,N
1600410775.5,286047002.2,N
1600410795.3,286047001.9,N
1600410815.2,286047004.4,N
1600410835.9,286047002.1,N
1600410855.7,286047003.9,N
1600410875.6,286047003.2,N
1600410895.4,286047003.8,N
1600410915.2,286046999.7,N
1600410935.1,286047001.6,N
1600410936.0,286047001.6,N
1600410955.8,286047004.4,N
1600410975.7,286047002.5,N
1600410995.5,286047004.4,N
1600411015.3,286047001.3,N
1600411035.2,286047004.0,N
1600411055.0,286047002.3,N
1600411055.9,286047002.3,N
1600411075.7,286047000.7,N
1600411095.6,286047002.5,N
1600411115.4,286046999.9,N
1600411135.3,286046999.7,N
1600411155.1,286047000.9,N
1600411156.0,286047000.9,N
1600411175.8,286046998.1,N
1600411195.7,286047000.9,N
1600411215.5,286047000.6,N
1600411235.3,286047001.3,N
1600411255.2,286047004.2,N
1600411275.0,286047002.0,N
1600411275.9,286047002.0,N
1600411295.8,286046999.9,N
1600411315.6,286046998.4,N
1600411335.4,286046999.4,N
1600411355.3,286047001.2,N
1600411375.1,286046998.2,N
1600411395.8,286046998.3,N
1600411415.7,286046995.0,N
1600411435.5,286046997.6,N
1600411455.4,286046999.3,N
1600411475.2,286046999.3,N
1600411495.0,286046998.3,N
1600411495.9,286046998.3,N
1600411515.8,286046998.4,N
1600411535.6,286046997.8,N
1600411555.5,286046997.4,N
1600411575.3,286046997.6,N
1600411595.1,286046995.0,N
1600411615.9,286046998.0,N
1600411635.7,286046993.4,Y
1600411655.5,286046994.9,P
1600411675.4,286046997.6,N
1600411695.2,286046995.3,N
1600411715.1,286046995.8,N
1600411716.0,286046995.8,N
1600411735.8,286046995.2,Y
1600411755.6,286046997.1,P
1600411775.5,286046999.2,N
1600411795.3,286046996.5,P
1600411815.2,286046998.8,N
1600411835.9,286046996.5,Y
1600411855.7,286047000.0,P
1600411875.6,286046998.4,N
1600411895.4,286046998.7,N
1600411915.2,286046998.6,N
1600411935.1,286047002.8,Y
1600411936.0,286047002.8,P
1600411955.8,286047001.8,N
1600411975.7,286047003.8,N
1600411995.5,286047001.7,N
1600412015.3,286047004.0,N
1600412035.2,286047006.0,Y
1600412055.0,286047002.6,P
1600412055.9,286047002.6,P
1600412075.8,286047001.8,P
1600412095.6,286047001.8,Y
1600412115.4,286046999.3,P
1600412135.3,286046996.7,N
1600412155.1,286046997.5,N
1600412175.9,286046997.4,N
1600412195.7,286046994.9,N
1600412215.5,286046997.9,N
1600412235.4,286046997.6,N
1600412255.2,286046997.6,N
1600412275.1,286046995.3,N
1600412276.0,286046995.3,N
1600412295.8,286046994.9,N
1600412315.6,286046995.4,N
1600412335.5,286046996.0,N
1600412355.3,286046995.9,N
1600412375.2,286046996.8,N
1600412395.9,286046999.0,N
